Location: Hanson Creek
(39.8683°N, 99.4848°W)
Time: 06:59:07
(UTC+00:00)

Daily predictions for brighter satellites

Satellite Brightness Start Highest point End
(mag) Time Altitude Azimuth Time Altitude Azimuth Time Altitude Azimuth
COSMOS 2455 4.5 12:07:26 17° NNW 12:07:26 17° NNW 12:10:15 10° N
STARLINK-29 3.4 12:08:02 51° NNW 12:08:40 63° NE 12:12:08 10° ESE
STARLINK 1045 3.5 12:07:57 53° W 12:08:43 68° NW 12:12:52 10° NE
Cosmos 2322 Rocket 2.4 12:08:33 30° WSW 12:10:53 46° WNW 12:16:22 10° NNE
STARLINK-52 3.5 12:10:45 44° NNW 12:11:34 59° NE 12:15:01 10° ESE
Cosmos 2263 Rocket 2.7 12:11:20 34° WNW 12:12:28 38° WSW 12:17:38 10° S
Cosmos 2056 Rocket 3.5 12:08:13 15° NNW 12:12:49 75° WSW 12:18:10 10° S
STARLINK 1050 3.6 12:12:59 46° W 12:13:54 60° NW 12:18:00 10° NE
Cosmos 1340 Rocket 4.4 12:10:59 10° SSE 12:14:34 36° E 12:18:11 10° NNE
Lacrosse 5 rocket 3.8 12:15:26 10° NNW 12:18:20 16° NNE 12:21:09 10° ENE
STARLINK 1055 3.7 12:17:40 40° W 12:18:47 55° NW 12:22:52 10° NE
ADEOS Rocket 3.8 12:14:30 10° SE 12:19:45 47° ENE 12:25:17 10° N
Cosmos 158 Rocket 4.4 12:20:09 31° W 12:21:07 34° WNW 12:25:38 10° N
Cosmos 2058 Rocket 3.5 12:18:18 10° SW 12:22:22 37° WNW 12:26:26 10° N
Cosmos 1844 Rocket 3.4 12:17:37 10° NNW 12:23:09 54° ENE 12:28:41 10° SE
STARLINK 1022 3.8 12:22:27 35° W 12:23:47 50° NW 12:27:49 10° NE
Meteor 1-11 4.2 12:18:16 10° NNW 12:23:47 59° W 12:29:20 10° S
CZ-4B DEB 4.1 12:19:33 10° N 12:25:03 68° WNW 12:30:30 10° SSW
Cosmos 1300 2.6 12:21:19 10° S 12:25:07 86° E 12:28:57 10° N
ATLAS 3B R/B 2.9 12:20:53 20° NW 12:25:29 52° WSW 12:32:12 10° S
Okean O Rocket 1.6 12:21:35 10° NNE 12:26:03 86° ESE 12:30:27 10° SSW
STARLINK 1042 3.9 12:27:11 31° W 12:28:43 46° NW 12:32:44 10° NE
ALOS 2.6 12:26:38 10° N 12:31:02 43° WNW 12:35:26 10° SW
SL-8 Rocket 4.4 12:27:08 10° NNW 12:32:43 37° W 12:38:16 10° SSW
COSMO-SKYMED 1 3.2 12:29:22 10° SSW 12:33:20 35° W 12:36:29 15° NW
STARLINK 1056 4.0 12:32:02 27° W 12:33:48 43° NNW 12:37:47 10° NE
Cosmos 1437 2.7 12:32:28 10° N 12:35:30 74° E 12:38:32 10° SSE
Cosmos 2333 Rocket 3.2 12:30:51 10° S 12:36:23 51° ESE 12:41:58 10° NNE
H-2A R/B 3.7 12:32:54 10° NNE 12:36:43 51° E 12:40:26 10° S
STARLINK 1054 4.1 12:36:45 24° W 12:38:43 40° NNW 12:42:39 10° NE
USA 215 3.7 12:33:40 10° ESE 12:40:03 59° NE 12:46:27 10° NW
FENGYUN 3A 4.0 12:36:46 10° N 12:41:50 41° WNW 12:46:52 10° SW
CENTAUR R/B 3.9 12:36:48 16° WNW 12:42:21 33° WSW 12:49:48 10° S
Cosmos 2084 Rocket 3.7 12:39:03 10° SSW 12:43:23 75° ESE 12:47:47 10° NE
STARLINK 1062 4.2 12:41:32 21° W 12:43:44 37° NNW 12:47:37 10° NE
Cosmos 2058 3.5 12:40:29 10° N 12:44:39 60° E 12:48:48 10° SSE
STARLINK 1053 4.4 12:46:22 19° W 12:48:47 35° NNW 12:52:37 10° NE
USA 116 4.4 12:48:02 10° SSW 12:52:12 38° W 12:55:57 10° NNW
Milstar 3 Cent rocket 4.5 12:37:05 10° WSW 12:52:12 45° S 12:59:37 10° ESE
STARLINK 1061 4.5 12:51:09 17° W 12:53:48 33° NNW 12:57:34 10° NE
Cosmos 1452 Rocket 3.5 12:49:31 10° NNW 12:54:48 87° WSW 13:00:03 10° SSE
Cosmos 2360 Rocket 2.6 12:49:30 10° SW 12:54:49 40° WNW 13:00:08 10° N
SL-16 R/B 3.5 12:52:53 14° W 12:55:27 19° NW 12:59:23 10° N
Cosmos 2219 Rocket 2.5 12:51:25 10° SSW 12:57:02 74° ESE 13:02:43 10° NNE
Iridium 96 3.3 12:57:28 10° S 12:59:52 66° W 13:02:11 10° N
Helios 1A Rocket 3.1 12:57:08 10° N 13:01:09 50° WNW 13:05:10 10° SSW
Cosmos 2333 4.2 12:55:36 10° SSW 13:01:21 71° WNW 13:07:09 10° NNE
Cosmos 2322 3.7 12:56:55 10° SW 13:02:31 60° WNW 13:08:07 10° NNE
Cosmos 1892 3.2 13:00:52 10° N 13:04:39 64° E 13:08:23 10° SSE
Cosmos 1821 Rocket 3.9 13:01:07 10° NNW 13:07:12 66° W 13:13:12 10° S
Cosmos-2242 3.5 13:02:58 10° S 13:07:18 69° E 13:11:40 10° NNE
CZ-3 R/B 3.6 12:53:25 10° W 13:07:44 29° SW 13:13:13 10° SSE
Nadezhda 3 Rocket 4.1 13:03:34 10° SSW 13:09:32 52° WNW 13:15:35 10° N
CZ-4 R/B 4.2 13:06:38 10° NE 13:10:07 24° E 13:13:32 10° SSE
CZ-4B R/B 3.5 13:05:21 10° N 13:10:28 42° WNW 13:15:30 10° SW
CORIOLIS 4.3 13:08:12 10° NNE 13:13:36 82° ESE 13:18:59 10° SSW
Cosmos 1844 3.7 13:09:08 10° NNW 13:14:41 71° WSW 13:20:12 10° SSE
Cosmos 1408 3.9 13:13:26 10° N 13:17:00 44° E 13:20:32 10° SSE
Cosmos 1825 4.2 13:13:39 10° NNE 13:17:02 31° ENE 13:20:23 10° SE
Cosmos 482 Debris 3.1 13:16:28 10° WSW 13:18:14 33° NW 13:19:54 10° NE
RESURS DK-1 4.3 13:18:20 10° WNW 13:19:27 11° NW 13:20:35 10° NNW
ATLAS 2AS CENTAUR R/B 4.5 13:16:19 10° WNW 13:21:23 18° NNW 13:26:25 10° NNE
SMAP 3.2 13:21:09 10° N 13:25:41 54° WNW 13:30:13 10° SSW
